This demonstration page uses our WeatherBlox Daily Observations layout. Learn more.

Left ArrowRight Arrow

Hourly Observations for March 26, 2015

Temp ( °F °C ) Dew Point ( °F °C ) Humidity (%) Winds ( mph kmh ) Pressure ( in mb ) Visibility ( mi km ) Precip ( " mm )
12:53 am 00:53 Clear 41 5 30 -1.1 65 65 SW 12 19 30.14 1021 10 16 N/A
1:53 am 01:53 Clear 40 4.4 31 -0.6 70 70 WSW 7 11 30.13 1020 10 16 N/A
2:53 am 02:53 Clear 40 4.4 30 -1.1 68 68 SW 14 22 30.12 1020 10 16 N/A
3:53 am 03:53 Clear 38 3.3 30 -1.1 73 73 SW 12 19 30.13 1020 10 16 N/A
4:53 am 04:53 Clear 35 1.7 29 -1.7 78 78 WSW 5 7 30.13 1020 10 16 N/A
5:53 am 05:53 Clear 33 0.6 29 -1.7 85 85 WNW 6 9 30.13 1020 10 16 N/A
6:53 am 06:53 Clear 33 0.6 29 -1.7 85 85 W 6 9 30.14 1021 10 16 N/A
7:53 am 07:53 Sunny 33 0.6 30 -1.1 89 89 W 7 11 30.14 1021 10 16 N/A
8:53 am 08:53 Sunny 41 5 33 0.6 73 73 WSW 7 11 30.14 1021 10 16 N/A
9:53 am 09:53 Sunny 51 10.6 34 1.1 52 52 W 10 17 30.12 1020 10 16 N/A
10:53 am 10:53 Sunny 54 12.2 33 0.6 45 45 W 14 22 30.11 1020 10 16 N/A
11:53 am 11:53 Sunny 58 14.4 33 0.6 39 39 W 10 17 30.08 1019 10 16 N/A
12:53 pm 12:53 Mostly Sunny 58 14.4 33 0.6 39 39 W 10 17 30.08 1019 10 16 N/A
1:53 pm 13:53 Sunny 62 16.7 34 1.1 35 35 W 9 15 30.04 1017 10 16 N/A
2:53 pm 14:53 Cloudy 62 16.7 34 1.1 35 35 W 10 17 30.02 1017 10 16 N/A
3:53 pm 15:53 Cloudy 64 17.8 35 1.7 34 34 WNW 9 15 30.01 1016 10 16 N/A
4:53 pm 16:53 Mostly Sunny 67 19.4 35 1.7 31 31 NW 20 31 30.00 1016 10 16 N/A
5:53 pm 17:53 Partly Cloudy 64 17.8 35 1.7 34 34 WNW 12 19 30.01 1016 10 16 N/A
6:53 pm 18:53 Sunny 63 17.2 35 1.7 35 35 NW 12 19 30.03 1017 10 16 N/A
7:53 pm 19:53 Clear 58 14.4 37 2.8 46 46 W 14 22 30.05 1018 10 16 N/A
8:53 pm 20:53 Clear 55 12.8 38 3.3 53 53 W 12 19 30.05 1018 10 16 N/A
9:53 pm 21:53 Clear 52 11.1 38 3.3 59 59 SW 10 17 30.05 1018 10 16 N/A
10:53 pm 22:53 Clear 52 11.1 38 3.3 59 59 SW 14 22 30.04 1017 10 16 N/A
11:53 pm 23:53 Clear 50 10 38 3.3 63 63 SW 10 17 30.04 1017 10 16 N/A

Powered by AerisWeather